Location: Burbank
(38.7788°N, 114.0429°W)
Time: 13:35:44
(UTC+00:00)

Vanguard 2 Rocket - Pass Details

Date: 16 May 2026
Orbit: 553 x 3286 km, 32.9° (Epoch: 6 June)

Event Time Altitude Azimuth Distance (km) Brightness Sun altitude
Rises 00:06:28 0° 282° (WNW) 6,931 12.6 28.4°
Reaches altitude 10° 00:11:12 10° 276° (W) 6,089 12.9 27.4°
Maximum altitude 00:29:04 43° 214° (SW) 3,993 10.8 24.0°
Drops below altitude 10° 00:44:32 10° 150° (SSE) 5,282 10.5 21.0°
Sets 00:48:21 0° 143° (SE) 5,975 10.7 20.2°
